QPF
0.00 0.00 0.00 0.00 0.00 0.00 0.00 0.00 0.00 0.00 0.00 0.00 0.00 0.00 0.00 0.01 0.04 0.05 0.05 0.06 0.06 0.05 0.05 0.03 0.02 0.02 0.02 0.01 0.01 0.01 0.01 0.01 0.01 0.02 0.01 0.02 0.01 0.00 0.01 0.01 0.01 0.03 0.04
0.00 0.00 0.00 0.00 0.00 0.00 0.00 0.00 0.00 0.00 0.00 0.00 0.00 0.00 0.00 0.01 0.02 0.03 0.06 0.14 0.17 0.09 0.07 0.09 0.07 0.06 0.05 0.02 0.02 0.01 0.02 0.01 0.01 0.01 0.01 0.01 0.01 0.01 0.00 0.00 0.01 0.02 0.03
0.00 0.00 0.00 0.00 0.00 0.00 0.00 0.00 0.00 0.00 0.00 0.00 0.00 0.00 0.00 0.00 0.00 0.00 0.01 0.05 0.09 0.09 0.08 0.06 0.08 0.08 0.08 0.05 0.02 0.01 0.01 0.01 0.01 0.01 0.01 0.01 0.01 0.00 0.00 0.00 0.00 0.00 0.01
0.00 0.00 0.00 0.00 0.00 0.00 0.00 0.00 0.00 0.00 0.00 0.00 0.00 0.00 0.00 0.00 0.00 0.00 0.00 0.00 0.01 0.01 0.02 0.01 0.01 0.03 0.05 0.06 0.05 0.02 0.00 0.00 0.00 0.00 0.01 0.01 0.01 0.00 0.00 0.00 0.00 0.00 0.00
0.00 0.00 0.00 0.00 0.00 0.00 0.00 0.00 0.00 0.00 0.00 0.00 0.00 0.00 0.00 0.00 0.00 0.00 0.00 0.00 0.00 0.00 0.00 0.00 0.00 0.00 0.00 0.01 0.02 0.02 0.01 0.00 0.00 0.00 0.00 0.00 0.00 0.00 0.00 0.00 0.00 0.00 0.00
0.00 0.00 0.00 0.00 0.00 0.00 0.01 0.01 0.02 0.03 0.01 0.00 0.00 0.00 0.00 0.00 0.00 0.00 0.00 0.00 0.00 0.00 0.00 0.00 0.00 0.00 0.00 0.00 0.00 0.00 0.01 0.01 0.01 0.00 0.00 0.00 0.00 0.00 0.00 0.00 0.00 0.00 0.00
0.02 0.01 0.00 0.00 0.00 0.00 0.01 0.01 0.07 0.13 0.09 0.01 0.02 0.03 0.01 0.00 0.00 0.00 0.00 0.00 0.00 0.00 0.00 0.00 0.00 0.00 0.00 0.00 0.00 0.00 0.00 0.01 0.01 0.01 0.01 0.00 0.00 0.00 0.00 0.00 0.00 0.00 0.00
0.06 0.03 0.01 0.01 0.01 0.02 0.02 0.06 0.13 0.18 0.12 0.03 0.05 0.15 0.09 0.03 0.00 0.00 0.00 0.00 0.00 0.00 0.00 0.00 0.00 0.00 0.00 0.00 0.00 0.00 0.00 0.01 0.02 0.02 0.01 0.01 0.00 0.00 0.00 0.00 0.00 0.00 0.00
0.12 0.08 0.04 0.02 0.02 0.02 0.04 0.08 0.16 0.24 0.14 0.05 0.03 0.10 0.17 0.14 0.03 0.00 0.00 0.00 0.00 0.00 0.00 0.00 0.00 0.00 0.00 0.00 0.00 0.00 0.00 0.00 0.01 0.02 0.01 0.01 0.00 0.00 0.00 0.00 0.00 0.00 0.00
0.14 0.12 0.07 0.06 0.05 0.04 0.07 0.08 0.13 0.24 0.26 0.17 0.07 0.03 0.04 0.05 0.04 0.04 0.01 0.00 0.00 0.00 0.00 0.00 0.00 0.00 0.00 0.00 0.00 0.00 0.00 0.00 0.00 0.00 0.00 0.00 0.01 0.01 0.01 0.01 0.01 0.01 0.01
0.11 0.08 0.06 0.06 0.07 0.07 0.07 0.10 0.15 0.25 0.28 0.26 0.15 0.07 0.04 0.03 0.01 0.04 0.06 0.02 0.00 0.00 0.00 0.00 0.00 0.00 0.00 0.00 0.00 0.00 0.00 0.00 0.00 0.00 0.00 0.00 0.01 0.02 0.03 0.03 0.02 0.02 0.01
0.10 0.08 0.07 0.05 0.07 0.08 0.08 0.10 0.16 0.25 0.26 0.27 0.19 0.10 0.08 0.04 0.01 0.01 0.04 0.04 0.02 0.00 0.00 0.00 0.00 0.00 0.00 0.00 0.00 0.00 0.00 0.00 0.00 0.00 0.00 0.00 0.00 0.00 0.01 0.02 0.02 0.02 0.02
0.07 0.08 0.10 0.12 0.13 0.13 0.12 0.13 0.19 0.25 0.26 0.30 0.21 0.12 0.06 0.02 0.00 0.00 0.01 0.01 0.04 0.02 0.00 0.00 0.00 0.00 0.00 0.00 0.00 0.00 0.00 0.00 0.00 0.00 0.00 0.00 0.00 0.00 0.00 0.00 0.00 0.01 0.01
0.05 0.04 0.07 0.12 0.17 0.20 0.18 0.16 0.18 0.22 0.24 0.29 0.23 0.18 0.16 0.07 0.01 0.00 0.00 0.03 0.10 0.12 0.06 0.01 0.00 0.00 0.00 0.00 0.00 0.00 0.00 0.00 0.00 0.00 0.00 0.00 0.00 0.00 0.00 0.00 0.00 0.00 0.00
0.02 0.02 0.03 0.05 0.09 0.13 0.15 0.15 0.14 0.16 0.19 0.26 0.25 0.22 0.25 0.17 0.04 0.00 0.00 0.02 0.09 0.16 0.17 0.11 0.04 0.00 0.00 0.00 0.00 0.00 0.00 0.00 0.00 0.00 0.00 0.00 0.00 0.00 0.00 0.00 0.00 0.00 0.00
0.02 0.01 0.01 0.01 0.03 0.05 0.06 0.09 0.12 0.16 0.19 0.24 0.28 0.29 0.33 0.28 0.13 0.04 0.01 0.01 0.02 0.10 0.15 0.12 0.08 0.01 0.00 0.00 0.00 0.00 0.00 0.00 0.00 0.00 0.00 0.00 0.00 0.00 0.00 0.00 0.00 0.00 0.00
0.01 0.01 0.01 0.01 0.03 0.05 0.05 0.08 0.14 0.20 0.24 0.27 0.29 0.33 0.39 0.36 0.30 0.17 0.09 0.07 0.05 0.08 0.13 0.10 0.07 0.02 0.01 0.00 0.00 0.00 0.00 0.00 0.00 0.00 0.00 0.00 0.00 0.00 0.00 0.00 0.00 0.00 0.00
0.01 0.02 0.02 0.03 0.04 0.04 0.05 0.06 0.12 0.19 0.27 0.31 0.32 0.34 0.37 0.39 0.42 0.34 0.25 0.17 0.13 0.10 0.13 0.12 0.08 0.04 0.03 0.01 0.00 0.00 0.00 0.00 0.00 0.00 0.00 0.00 0.00 0.00 0.00 0.00 0.00 0.00 0.00
0.02 0.02 0.03 0.04 0.06 0.06 0.05 0.04 0.05 0.10 0.17 0.26 0.31 0.30 0.29 0.31 0.36 0.31 0.24 0.17 0.15 0.11 0.14 0.15 0.13 0.06 0.03 0.02 0.00 0.00 0.00 0.00 0.00 0.00 0.00 0.00 0.00 0.00 0.00 0.00 0.00 0.00 0.00
0.01 0.02 0.03 0.06 0.08 0.08 0.08 0.06 0.05 0.05 0.06 0.11 0.18 0.22 0.23 0.23 0.23 0.19 0.16 0.16 0.20 0.18 0.20 0.21 0.17 0.07 0.04 0.03 0.01 0.00 0.00 0.00 0.00 0.00 0.00 0.00 0.00 0.00 0.00 0.00 0.00 0.00 0.00
0.00 0.01 0.02 0.03 0.04 0.06 0.06 0.08 0.07 0.04 0.04 0.03 0.04 0.06 0.09 0.12 0.13 0.11 0.10 0.14 0.22 0.24 0.22 0.22 0.20 0.11 0.04 0.03 0.01 0.00 0.00 0.00 0.00 0.00 0.00 0.00 0.00 0.00 0.00 0.00 0.00 0.00 0.00
0.01 0.01 0.01 0.01 0.03 0.03 0.03 0.04 0.04 0.03 0.04 0.04 0.03 0.02 0.02 0.03 0.04 0.04 0.03 0.04 0.08 0.12 0.17 0.22 0.21 0.16 0.07 0.03 0.02 0.01 0.00 0.00 0.00 0.00 0.00 0.00 0.00 0.00 0.00 0.00 0.00 0.00 0.00
0.03 0.04 0.03 0.02 0.03 0.06 0.04 0.01 0.01 0.02 0.03 0.05 0.04 0.04 0.03 0.01 0.01 0.01 0.01 0.01 0.01 0.02 0.07 0.15 0.18 0.19 0.23 0.15 0.06 0.03 0.01 0.01 0.00 0.00 0.00 0.00 0.00 0.00 0.00 0.00 0.00 0.00 0.00
0.07 0.07 0.08 0.09 0.11 0.13 0.09 0.02 0.01 0.01 0.02 0.02 0.02 0.02 0.03 0.02 0.01 0.01 0.02 0.02 0.02 0.04 0.07 0.06 0.08 0.16 0.22 0.24 0.15 0.09 0.07 0.05 0.02 0.00 0.00 0.00 0.00 0.00 0.00 0.00 0.00 0.00 0.00
0.14 0.15 0.15 0.16 0.18 0.15 0.12 0.04 0.01 0.01 0.00 0.00 0.01 0.01 0.02 0.01 0.02 0.03 0.04 0.06 0.08 0.10 0.13 0.14 0.13 0.13 0.14 0.16 0.16 0.12 0.09 0.06 0.03 0.00 0.00 0.00 0.00 0.00 0.00 0.00 0.00 0.00 0.00
0.10 0.12 0.12 0.13 0.16 0.16 0.18 0.07 0.03 0.02 0.02 0.03 0.03 0.03 0.05 0.04 0.05 0.05 0.05 0.08 0.08 0.08 0.09 0.08 0.07 0.06 0.04 0.04 0.06 0.07 0.08 0.07 0.06 0.02 0.00 0.00 0.00 0.00 0.00 0.00 0.00 0.00 0.00
MSLP
1012.12 1012.43 1012.70 1012.91 1013.08 1013.20 1013.27 1013.31 1013.33 1013.34 1013.35 1013.40 1013.50 1013.66 1013.89 1014.16 1014.46 1014.75 1015.00 1015.18 1015.28 1015.31 1015.29 1015.25 1015.22 1015.22 1015.25 1015.29 1015.35 1015.39 1015.42 1015.43 1015.46 1015.52 1015.63 1015.80 1016.00 1016.20 1016.35 1016.39 1016.30 1016.09 1015.79
1011.66 1011.99 1012.29 1012.56 1012.80 1012.99 1013.15 1013.26 1013.34 1013.41 1013.47 1013.57 1013.71 1013.90 1014.14 1014.41 1014.70 1014.97 1015.19 1015.35 1015.44 1015.48 1015.48 1015.48 1015.49 1015.52 1015.57 1015.62 1015.66 1015.68 1015.66 1015.64 1015.62 1015.65 1015.75 1015.91 1016.11 1016.31 1016.45 1016.49 1016.39 1016.17 1015.87
1011.26 1011.57 1011.90 1012.22 1012.53 1012.80 1013.05 1013.25 1013.42 1013.57 1013.70 1013.85 1014.02 1014.23 1014.46 1014.72 1014.97 1015.19 1015.36 1015.48 1015.54 1015.58 1015.60 1015.63 1015.68 1015.76 1015.84 1015.92 1015.96 1015.96 1015.91 1015.85 1015.80 1015.80 1015.87 1016.01 1016.20 1016.39 1016.53 1016.57 1016.47 1016.26 1015.97
1010.95 1011.24 1011.57 1011.92 1012.29 1012.66 1013.00 1013.30 1013.57 1013.80 1014.01 1014.21 1014.42 1014.63 1014.85 1015.06 1015.25 1015.41 1015.51 1015.57 1015.60 1015.62 1015.65 1015.71 1015.81 1015.93 1016.06 1016.16 1016.22 1016.21 1016.15 1016.06 1015.98 1015.95 1015.99 1016.11 1016.28 1016.45 1016.59 1016.62 1016.53 1016.33 1016.05
1010.77 1011.02 1011.33 1011.70 1012.12 1012.55 1012.98 1013.38 1013.75 1014.07 1014.35 1014.61 1014.85 1015.07 1015.26 1015.43 1015.56 1015.65 1015.68 1015.68 1015.66 1015.66 1015.69 1015.77 1015.90 1016.06 1016.23 1016.36 1016.44 1016.44 1016.37 1016.26 1016.16 1016.09 1016.10 1016.19 1016.33 1016.50 1016.62 1016.66 1016.58 1016.38 1016.12
1010.70 1010.89 1011.18 1011.56 1012.00 1012.49 1012.99 1013.47 1013.92 1014.32 1014.68 1014.98 1015.25 1015.48 1015.67 1015.81 1015.89 1015.91 1015.89 1015.83 1015.77 1015.74 1015.76 1015.84 1016.00 1016.19 1016.39 1016.55 1016.64 1016.65 1016.58 1016.47 1016.34 1016.25 1016.22 1016.28 1016.39 1016.53 1016.65 1016.68 1016.61 1016.43 1016.18
1010.69 1010.84 1011.10 1011.47 1011.93 1012.45 1013.00 1013.54 1014.04 1014.51 1014.92 1015.27 1015.58 1015.83 1016.02 1016.15 1016.21 1016.20 1016.13 1016.04 1015.95 1015.89 1015.90 1015.98 1016.14 1016.35 1016.57 1016.75 1016.86 1016.88 1016.81 1016.69 1016.54 1016.42 1016.37 1016.39 1016.47 1016.59 1016.69 1016.72 1016.65 1016.49 1016.25
1010.70 1010.81 1011.05 1011.41 1011.87 1012.40 1012.97 1013.54 1014.08 1014.58 1015.03 1015.43 1015.77 1016.05 1016.27 1016.41 1016.48 1016.47 1016.40 1016.29 1016.19 1016.12 1016.11 1016.19 1016.35 1016.56 1016.78 1016.97 1017.09 1017.12 1017.06 1016.94 1016.79 1016.65 1016.57 1016.55 1016.60 1016.69 1016.77 1016.80 1016.73 1016.57 1016.34
1010.68 1010.78 1011.00 1011.35 1011.80 1012.33 1012.89 1013.46 1014.00 1014.51 1014.98 1015.40 1015.77 1016.09 1016.35 1016.53 1016.64 1016.66 1016.62 1016.53 1016.43 1016.37 1016.36 1016.43 1016.58 1016.78 1017.00 1017.20 1017.33 1017.38 1017.34 1017.22 1017.07 1016.92 1016.82 1016.78 1016.80 1016.85 1016.91 1016.92 1016.86 1016.71 1016.48
1010.60 1010.71 1010.94 1011.29 1011.73 1012.23 1012.76 1013.30 1013.82 1014.30 1014.76 1015.18 1015.57 1015.92 1016.22 1016.46 1016.63 1016.71 1016.71 1016.67 1016.60 1016.55 1016.55 1016.62 1016.76 1016.96 1017.18 1017.39 1017.54 1017.61 1017.59 1017.50 1017.37 1017.23 1017.12 1017.05 1017.05 1017.08 1017.11 1017.11 1017.05 1016.91 1016.69
1010.48 1010.62 1010.87 1011.21 1011.64 1012.11 1012.59 1013.08 1013.54 1013.98 1014.39 1014.79 1015.18 1015.55 1015.89 1016.18 1016.40 1016.55 1016.62 1016.63 1016.61 1016.60 1016.62 1016.69 1016.83 1017.03 1017.26 1017.48 1017.66 1017.77 1017.80 1017.75 1017.65 1017.53 1017.43 1017.36 1017.34 1017.34 1017.36 1017.35 1017.29 1017.15 1016.94
1010.33 1010.51 1010.78 1011.14 1011.54 1011.97 1012.41 1012.82 1013.21 1013.57 1013.93 1014.28 1014.64 1015.01 1015.36 1015.69 1015.97 1016.18 1016.31 1016.39 1016.42 1016.45 1016.50 1016.59 1016.74 1016.95 1017.19 1017.44 1017.65 1017.81 1017.90 1017.91 1017.87 1017.79 1017.72 1017.66 1017.63 1017.63 1017.63 1017.61 1017.54 1017.42 1017.23
1010.17 1010.40 1010.71 1011.06 1011.45 1011.85 1012.22 1012.57 1012.87 1013.16 1013.44 1013.73 1014.04 1014.38 1014.72 1015.06 1015.37 1015.63 1015.82 1015.95 1016.04 1016.11 1016.20 1016.31 1016.49 1016.71 1016.97 1017.25 1017.51 1017.72 1017.88 1017.96 1017.99 1017.98 1017.95 1017.92 1017.90 1017.89 1017.88 1017.85 1017.79 1017.68 1017.51
1010.04 1010.30 1010.63 1010.99 1011.37 1011.73 1012.06 1012.34 1012.58 1012.79 1012.99 1013.21 1013.46 1013.75 1014.06 1014.39 1014.71 1014.99 1015.23 1015.40 1015.54 1015.66 1015.78 1015.92 1016.11 1016.36 1016.64 1016.94 1017.24 1017.52 1017.74 1017.90 1018.01 1018.07 1018.09 1018.10 1018.11 1018.10 1018.09 1018.06 1018.00 1017.91 1017.77
1009.91 1010.20 1010.53 1010.90 1011.27 1011.61 1011.91 1012.15 1012.34 1012.50 1012.64 1012.79 1012.98 1013.21 1013.49 1013.79 1014.10 1014.38 1014.64 1014.85 1015.03 1015.18 1015.34 1015.51 1015.72 1015.97 1016.27 1016.59 1016.92 1017.23 1017.51 1017.75 1017.93 1018.06 1018.15 1018.21 1018.24 1018.25 1018.25 1018.22 1018.16 1018.08 1017.97
1009.76 1010.05 1010.40 1010.77 1011.14 1011.48 1011.77 1012.00 1012.17 1012.30 1012.41 1012.52 1012.66 1012.84 1013.07 1013.34 1013.62 1013.90 1014.17 1014.41 1014.61 1014.79 1014.97 1015.16 1015.38 1015.64 1015.93 1016.25 1016.59 1016.93 1017.25 1017.53 1017.77 1017.96 1018.11 1018.22 1018.29 1018.33 1018.34 1018.31 1018.26 1018.19 1018.10
1009.56 1009.85 1010.18 1010.55 1010.93 1011.29 1011.60 1011.86 1012.05 1012.19 1012.29 1012.39 1012.51 1012.65 1012.85 1013.08 1013.33 1013.61 1013.87 1014.12 1014.35 1014.56 1014.75 1014.96 1015.17 1015.42 1015.69 1015.99 1016.31 1016.64 1016.97 1017.28 1017.56 1017.80 1018.00 1018.16 1018.27 1018.34 1018.37 1018.35 1018.31 1018.24 1018.17
1009.29 1009.55 1009.87 1010.24 1010.64 1011.02 1011.38 1011.68 1011.92 1012.10 1012.24 1012.35 1012.47 1012.60 1012.77 1012.97 1013.21 1013.46 1013.73 1013.99 1014.23 1014.46 1014.67 1014.87 1015.08 1015.30 1015.54 1015.81 1016.09 1016.39 1016.70 1017.01 1017.31 1017.58 1017.82 1018.03 1018.18 1018.29 1018.34 1018.34 1018.31 1018.26 1018.19
1008.95 1009.18 1009.48 1009.84 1010.25 1010.67 1011.08 1011.44 1011.74 1011.99 1012.17 1012.32 1012.45 1012.59 1012.74 1012.93 1013.15 1013.39 1013.65 1013.92 1014.17 1014.42 1014.64 1014.85 1015.04 1015.24 1015.44 1015.65 1015.89 1016.14 1016.42 1016.71 1017.01 1017.30 1017.58 1017.82 1018.02 1018.17 1018.26 1018.29 1018.28 1018.24 1018.19
1008.57 1008.76 1009.03 1009.38 1009.79 1010.24 1010.69 1011.11 1011.48 1011.78 1012.03 1012.22 1012.37 1012.52 1012.67 1012.84 1013.05 1013.28 1013.53 1013.80 1014.06 1014.32 1014.55 1014.76 1014.95 1015.12 1015.29 1015.46 1015.64 1015.85 1016.08 1016.35 1016.64 1016.94 1017.24 1017.53 1017.78 1017.97 1018.11 1018.19 1018.21 1018.19 1018.16
1008.21 1008.35 1008.58 1008.91 1009.31 1009.77 1010.24 1010.70 1011.11 1011.47 1011.75 1011.98 1012.16 1012.31 1012.46 1012.62 1012.80 1013.02 1013.26 1013.53 1013.80 1014.06 1014.30 1014.52 1014.71 1014.87 1015.01 1015.15 1015.29 1015.46 1015.66 1015.90 1016.18 1016.49 1016.82 1017.14 1017.44 1017.69 1017.88 1018.02 1018.09 1018.11 1018.11
1007.92 1008.02 1008.21 1008.50 1008.87 1009.31 1009.77 1010.24 1010.67 1011.04 1011.35 1011.60 1011.78 1011.93 1012.07 1012.21 1012.37 1012.57 1012.79 1013.05 1013.31 1013.58 1013.84 1014.06 1014.26 1014.42 1014.56 1014.68 1014.81 1014.95 1015.14 1015.37 1015.64 1015.96 1016.31 1016.66 1017.00 1017.31 1017.56 1017.76 1017.89 1017.98 1018.03
1007.79 1007.83 1007.97 1008.21 1008.53 1008.92 1009.35 1009.78 1010.19 1010.56 1010.86 1011.10 1011.28 1011.42 1011.53 1011.65 1011.78 1011.95 1012.15 1012.39 1012.64 1012.91 1013.17 1013.41 1013.62 1013.80 1013.95 1014.08 1014.21 1014.36 1014.54 1014.76 1015.04 1015.36 1015.72 1016.10 1016.48 1016.83 1017.15 1017.41 1017.61 1017.77 1017.88
1007.82 1007.83 1007.91 1008.08 1008.34 1008.65 1009.02 1009.39 1009.75 1010.08 1010.35 1010.56 1010.72 1010.84 1010.93 1011.02 1011.13 1011.27 1011.44 1011.65 1011.89 1012.15 1012.42 1012.67 1012.90 1013.10 1013.27 1013.42 1013.58 1013.74 1013.92 1014.15 1014.43 1014.75 1015.11 1015.50 1015.90 1016.28 1016.64 1016.96 1017.23 1017.45 1017.64
1008.04 1008.01 1008.04 1008.14 1008.32 1008.55 1008.82 1009.12 1009.41 1009.68 1009.90 1010.08 1010.22 1010.32 1010.39 1010.46 1010.55 1010.66 1010.81 1011.00 1011.22 1011.46 1011.72 1011.97 1012.22 1012.44 1012.64 1012.82 1013.00 1013.18 1013.38 1013.60 1013.87 1014.18 1014.53 1014.90 1015.30 1015.69 1016.07 1016.42 1016.74 1017.03 1017.29
1008.39 1008.34 1008.32 1008.36 1008.46 1008.60 1008.79 1008.99 1009.21 1009.41 1009.59 1009.73 1009.85 1009.94 1010.01 1010.08 1010.16 1010.26 1010.39 1010.55 1010.75 1010.98 1011.22 1011.47 1011.72 1011.96 1012.17 1012.38 1012.57 1012.77 1012.97 1013.19 1013.44 1013.72 1014.03 1014.37 1014.73 1015.10 1015.47 1015.83 1016.18 1016.51 1016.81
Thickness
5751 5746 5743 5740 5739 5738 5738 5738 5739 5739 5740 5741 5741 5740 5738 5736 5734 5733 5733 5736 5738 5740 5742 5742 5743 5744 5745 5748 5749 5751 5753 5755 5756 5757 5758 5758 5758 5758 5758 5758 5759 5759 5760
5752 5746 5744 5740 5740 5738 5737 5737 5736 5734 5733 5733 5733 5734 5734 5733 5731 5729 5729 5731 5733 5735 5736 5737 5738 5739 5742 5744 5746 5748 5751 5753 5754 5756 5756 5756 5756 5756 5756 5756 5756 5757 5758
5752 5746 5743 5739 5739 5738 5737 5736 5734 5731 5728 5727 5727 5728 5729 5730 5729 5727 5726 5726 5727 5728 5730 5731 5733 5735 5737 5740 5742 5744 5747 5749 5751 5753 5754 5754 5754 5754 5754 5753 5753 5754 5756
5752 5747 5742 5738 5738 5737 5736 5733 5730 5726 5724 5723 5722 5723 5723 5725 5726 5725 5724 5723 5723 5722 5723 5725 5727 5729 5732 5735 5738 5741 5743 5745 5748 5749 5750 5751 5751 5751 5752 5751 5751 5752 5754
5751 5747 5742 5738 5737 5735 5733 5730 5726 5723 5720 5717 5716 5717 5719 5720 5721 5723 5721 5720 5720 5719 5719 5720 5722 5724 5727 5730 5733 5736 5738 5741 5743 5745 5746 5748 5749 5749 5750 5750 5750 5750 5752
5750 5747 5741 5736 5735 5732 5729 5726 5722 5720 5717 5715 5714 5712 5713 5716 5717 5717 5717 5717 5717 5717 5717 5718 5719 5720 5722 5725 5727 5730 5733 5736 5738 5740 5742 5744 5746 5747 5748 5749 5749 5750 5751
5746 5745 5739 5734 5731 5727 5724 5722 5719 5715 5712 5713 5707 5702 5706 5711 5711 5711 5712 5712 5713 5714 5715 5717 5717 5718 5719 5720 5723 5725 5729 5731 5733 5734 5737 5740 5742 5744 5746 5747 5748 5749 5750
5741 5740 5737 5731 5727 5723 5720 5717 5715 5709 5707 5709 5702 5693 5690 5694 5701 5708 5708 5708 5709 5711 5712 5714 5716 5717 5717 5717 5718 5721 5724 5726 5727 5729 5732 5736 5738 5740 5742 5745 5746 5747 5749
5735 5734 5732 5727 5722 5718 5715 5712 5710 5705 5700 5703 5705 5695 5687 5684 5690 5699 5703 5705 5706 5708 5710 5712 5714 5715 5714 5714 5713 5716 5718 5721 5723 5726 5728 5731 5734 5736 5739 5741 5743 5745 5747
5727 5726 5725 5722 5717 5713 5710 5708 5707 5703 5699 5695 5699 5702 5702 5699 5691 5688 5696 5702 5704 5704 5706 5709 5710 5711 5711 5710 5709 5710 5713 5716 5718 5721 5723 5726 5729 5731 5734 5736 5738 5741 5743
5722 5720 5718 5717 5713 5709 5706 5704 5702 5700 5697 5694 5692 5695 5699 5702 5703 5692 5688 5694 5699 5702 5704 5706 5706 5707 5707 5706 5706 5707 5709 5711 5713 5715 5717 5719 5722 5724 5727 5730 5733 5736 5738
5715 5714 5712 5710 5708 5705 5702 5700 5698 5697 5695 5694 5692 5692 5695 5696 5697 5697 5693 5693 5694 5699 5703 5704 5704 5704 5704 5704 5704 5704 5705 5707 5708 5710 5711 5713 5715 5717 5720 5723 5726 5729 5731
5707 5707 5706 5704 5702 5701 5699 5698 5695 5695 5695 5693 5692 5693 5696 5701 5703 5702 5699 5697 5696 5699 5700 5701 5703 5703 5702 5702 5702 5701 5702 5703 5704 5706 5707 5708 5709 5711 5713 5716 5718 5721 5723
5704 5703 5702 5699 5698 5697 5696 5695 5693 5693 5694 5694 5693 5693 5694 5699 5704 5704 5703 5699 5693 5692 5695 5698 5702 5702 5702 5701 5701 5700 5700 5700 5701 5702 5703 5704 5704 5706 5707 5709 5711 5713 5715
5702 5700 5698 5696 5694 5694 5693 5692 5691 5691 5692 5692 5692 5692 5691 5694 5701 5705 5706 5704 5694 5685 5685 5695 5697 5701 5701 5700 5699 5698 5698 5698 5698 5698 5699 5699 5700 5700 5701 5703 5704 5706 5708
5699 5695 5693 5692 5691 5689 5688 5688 5687 5688 5687 5688 5688 5687 5687 5689 5694 5701 5703 5703 5701 5693 5687 5694 5698 5701 5701 5698 5696 5696 5696 5694 5694 5695 5695 5695 5696 5697 5698 5699 5700 5701 5703
5695 5693 5691 5689 5688 5686 5684 5683 5682 5682 5682 5682 5683 5682 5682 5682 5685 5691 5696 5697 5697 5695 5688 5692 5699 5701 5699 5697 5693 5693 5691 5691 5691 5692 5692 5692 5693 5693 5694 5695 5696 5697 5699
5693 5691 5690 5688 5686 5684 5682 5680 5678 5678 5678 5677 5677 5676 5675 5676 5677 5680 5685 5687 5689 5691 5689 5686 5691 5694 5695 5695 5692 5691 5690 5690 5689 5689 5689 5689 5689 5689 5690 5691 5691 5692 5692
5692 5689 5689 5686 5685 5682 5680 5677 5675 5674 5674 5673 5673 5672 5671 5670 5669 5671 5675 5678 5680 5684 5685 5685 5685 5688 5690 5691 5688 5687 5689 5689 5688 5686 5685 5685 5685 5685 5685 5685 5685 5685 5686
5690 5688 5687 5686 5684 5681 5678 5675 5672 5670 5669 5668 5668 5668 5667 5665 5663 5664 5667 5670 5673 5674 5677 5678 5679 5680 5681 5684 5683 5680 5681 5684 5685 5682 5681 5680 5680 5680 5679 5679 5679 5679 5679
5688 5686 5684 5682 5681 5678 5676 5673 5670 5668 5665 5664 5663 5663 5663 5662 5661 5661 5663 5664 5666 5667 5668 5670 5672 5673 5673 5673 5675 5678 5676 5677 5679 5679 5675 5676 5675 5674 5674 5674 5673 5673 5673
5683 5682 5680 5678 5676 5676 5674 5671 5667 5665 5663 5661 5661 5661 5660 5660 5660 5660 5661 5662 5663 5663 5663 5664 5667 5668 5671 5672 5673 5674 5672 5670 5669 5675 5672 5670 5670 5670 5671 5670 5669 5668 5667
5677 5674 5673 5672 5671 5670 5668 5666 5663 5661 5660 5659 5660 5660 5661 5661 5660 5660 5660 5661 5662 5663 5664 5664 5665 5668 5670 5672 5670 5669 5669 5669 5669 5672 5669 5666 5667 5667 5669 5669 5666 5664 5662
5671 5668 5666 5665 5664 5663 5661 5659 5658 5657 5657 5658 5660 5661 5660 5662 5662 5661 5660 5660 5662 5664 5666 5666 5667 5670 5672 5673 5672 5670 5668 5667 5667 5668 5666 5661 5663 5663 5665 5663 5662 5659 5657
5665 5663 5661 5659 5657 5655 5653 5652 5651 5649 5650 5653 5657 5660 5661 5661 5663 5661 5658 5657 5658 5660 5663 5664 5664 5666 5667 5668 5669 5666 5663 5658 5657 5659 5661 5659 5660 5658 5658 5656 5656 5655 5653
5657 5657 5655 5653 5651 5650 5648 5645 5644 5643 5642 5644 5649 5653 5655 5655 5656 5656 5653 5652 5652 5655 5657 5657 5658 5659 5660 5662 5663 5663 5661 5656 5653 5653 5656 5654 5655 5653 5650 5652 5651 5649 5648